FW3613 Weather Reports


Display with metric or nautical units.
time (UTC)temp
F
wind
direction
speed
MPH
gust
MPH
rain 1hr
in
rain 24hr
in
rain mn
in
humidity
%
barometer
mb
20260505001549 82 294 4.0 11.0 0.00 0.00 0.00 20 1002.6
20260505001048 82 294 4.0 10.0 0.00 0.00 0.00 20 1002.7
20260505000548 82 291 4.0 15.0 0.00 0.00 0.00 20 1002.6
20260505000053 82 316 6.0 15.0 0.00 0.00 0.00 20 1002.7
20260504235549 82 305 3.0 10.0 0.00 0.00 0.00 20 1002.7
20260504235047 82 323 3.0 10.0 0.00 0.00 0.00 21 1002.8
20260504234546 82 308 3.0 9.0 0.00 0.00 0.00 21 1002.8
20260504234045 82 285 3.0 13.0 0.00 0.00 0.00 22 1002.9
20260504233545 82 297 5.0 11.0 0.00 0.00 0.00 22 1002.8
20260504233046 82 296 3.0 12.0 0.00 0.00 0.00 23 1002.9
20260504232544 82 295 6.0 13.0 0.00 0.00 0.00 24 1003.0
20260504232042 82 294 5.0 13.0 0.00 0.00 0.00 23 1003.0
20260504231542 83 283 3.0 7.0 0.00 0.00 0.00 24 1003.0
20260504231041 82 304 1.0 10.0 0.00 0.00 0.00 24 1003.0
20260504230541 82 301 5.0 12.0 0.00 0.00 0.00 24 1003.2
20260504230040 82 279 5.0 12.0 0.00 0.00 0.00 24 1003.2
20260504225540 82 293 2.0 14.0 0.00 0.00 0.00 25 1003.3
20260504225039 82 280 3.0 14.0 0.00 0.00 0.00 24 1003.3
20260504224538 82 307 3.0 8.0 0.00 0.00 0.00 24 1003.4
20260504224037 82 301 1.0 8.0 0.00 0.00 0.00 24 1003.5
20260504223536 82 266 2.0 9.0 0.00 0.00 0.00 25 1003.6
20260504223054 82 287 3.0 9.0 0.00 0.00 0.00 25 1003.6
20260504222535 81 305 2.0 9.0 0.00 0.00 0.00 26 1003.7
20260504222033 81 303 2.0 11.0 0.00 0.00 0.00 26 1003.9
20260504221535 81 302 4.0 11.0 0.00 0.00 0.00 25 1003.9
20260504221032 81 291 3.0 11.0 0.00 0.00 0.00 25 1004.0
20260504220532 81 303 2.0 12.0 0.00 0.00 0.00 26 1004.1
20260504220032 81 279 3.0 12.0 0.00 0.00 0.00 25 1004.1
20260504215529 81 296 2.0 8.0 0.00 0.00 0.00 25 1004.2
20260504215031 80 291 3.0 11.0 0.00 0.00 0.00 26 1004.2
20260504214526 80 288 3.0 11.0 0.00 0.00 0.00 27 1004.4
20260504214029 80 295 1.0 10.0 0.00 0.00 0.00 28 1004.4
20260504213526 80 294 4.0 10.0 0.00 0.00 0.00 28 1004.5
20260504213028 80 106 2.0 8.0 0.00 0.00 0.00 28 1004.7
20260504212523 79 265 2.0 9.0 0.00 0.00 0.00 29 1004.8
20260504212024 79 300 5.0 11.0 0.00 0.00 0.00 29 1004.8
20260504211533 79 305 5.0 10.0 0.00 0.00 0.00 28 1004.9
20260504211020 79 301 3.0 7.0 0.00 0.00 0.00 29 1005.0
20260504210519 79 283 1.0 10.0 0.00 0.00 0.00 29 1005.1
20260504210018 78 274 4.0 10.0 0.00 0.00 0.00 31 1005.1
20260504205518 78 283 2.0 6.0 0.00 0.00 0.00 31 1005.2
20260504205015 78 304 2.0 9.0 0.00 0.00 0.00 31 1005.3
20260504204518 78 288 2.0 8.0 0.00 0.00 0.00 32 1005.4
20260504204014 78 283 1.0 8.0 0.00 0.00 0.00 30 1005.4
20260504203512 77 290 3.0 7.0 0.00 0.00 0.00 30 1005.5
20260504203013 77 298 3.0 9.0 0.00 0.00 0.00 30 1005.6
20260504202512 77 293 4.0 9.0 0.00 0.00 0.00 31 1005.7
20260504202009 77 304 1.0 8.0 0.00 0.00 0.00 31 1005.7
20260504201508 76 350 3.0 8.0 0.00 0.00 0.00 31 1005.7
20260504201006 76 285 0.0 7.0 0.00 0.00 0.00 32 1005.8
20260504200507 76 289 3.0 9.0 0.00 0.00 0.00 31 1005.9
20260504200007 75 303 3.0 9.0 0.00 0.00 0.00 32 1005.9
20260504195504 75 300 3.0 9.0 0.00 0.00 0.00 32 1005.9
20260504195002 75 294 1.0 7.0 0.00 0.00 0.00 33 1006.1
20260504194503 75 338 3.0 9.0 0.00 0.00 0.00 33 1006.1
20260504194001 74 285 2.0 9.0 0.00 0.00 0.00 32 1006.1
20260504193600 74 297 4.0 9.0 0.00 0.00 0.00 32 1006.2
20260504193109 74 309 1.0 9.0 0.00 0.00 0.00 33 1006.3
20260504192558 74 293 4.0 6.0 0.00 0.00 0.00 34 1006.3
20260504192057 74 273 3.0 7.0 0.00 0.00 0.00 32 1006.4
20260504191611 74 294 2.0 7.0 0.00 0.00 0.00 34 1006.5
20260504191055 73 300 2.0 7.0 0.00 0.00 0.00 34 1006.6
20260504190555 73 308 4.0 7.0 0.00 0.00 0.00 35 1006.6
20260504190106 73 305 3.0 6.0 0.00 0.00 0.00 36 1006.7
20260504185551 72 300 2.0 5.0 0.00 0.00 0.00 37 1006.7
20260504185050 72 287 0.0 5.0 0.00 0.00 0.00 38 1006.8
20260504184552 71 309 1.0 5.0 0.00 0.00 0.00 39 1006.9
20260504184049 71 290 2.0 5.0 0.00 0.00 0.00 39 1007.0
20260504183551 71 293 3.0 5.0 0.00 0.00 0.00 40 1007.1
20260504183046 70 294 0.0 5.0 0.00 0.00 0.00 41 1007.1
20260504182546 70 297 0.0 7.0 0.00 0.00 0.00 41 1007.2
20260504182044 69 307 1.0 7.0 0.00 0.00 0.00 41 1007.2
20260504181544 69 285 2.0 4.0 0.00 0.00 0.00 41 1007.3
20260504181043 68 285 1.0 6.0 0.00 0.00 0.00 41 1007.3
20260504180542 69 300 2.0 7.0 0.00 0.00 0.00 40 1007.3
20260504180042 69 297 3.0 7.0 0.00 0.00 0.00 41 1007.3
20260504175540 68 271 1.0 6.0 0.00 0.00 0.00 43 1007.4
20260504175039 68 248 1.0 7.0 0.00 0.00 0.00 43 1007.5
20260504174543 67 300 2.0 6.0 0.00 0.00 0.00 43 1007.5
20260504174037 67 297 1.0 5.0 0.00 0.00 0.00 44 1007.5
20260504173537 67 283 0.0 5.0 0.00 0.00 0.00 43 1007.5
20260504173037 67 297 1.0 5.0 0.00 0.00 0.00 42 1007.6
20260504172536 66 293 0.0 4.0 0.00 0.00 0.00 43 1007.5
20260504172036 66 283 1.0 4.0 0.00 0.00 0.00 44 1007.6
20260504171537 66 290 2.0 4.0 0.00 0.00 0.00 44 1007.6
20260504171033 65 294 0.0 3.0 0.00 0.00 0.00 45 1007.6
20260504170532 65 299 0.0 2.0 0.00 0.00 0.00 46 1007.7
20260504151009 57 120 0.0 2.0 0.00 0.00 0.00 57 1007.9
20260504150510 56 120 0.0 1.0 0.00 0.00 0.00 60 1007.9
20260504141008 49 120 0.0 0.0 0.00 0.00 0.00 77 1007.9
20260504140507 49 120 0.0 0.0 0.00 0.00 0.00 79 1007.9
20260504130505 44 120 0.0 0.0 0.00 0.00 0.00 84 1007.5
20260504110551 46 122 0.0 0.0 0.00 0.00 0.00 82 1007.2
20260504100542 48 122 0.0 1.0 0.00 0.00 0.00 78 1006.9
20260504081526 52 122 0.0 1.0 0.00 0.00 0.00 70 1007.1
20260504081026 52 123 0.0 0.0 0.00 0.00 0.00 69 1007.0
20260504080523 53 123 0.0 0.0 0.00 0.00 0.00 69 1007.1
20260504050557 61 89 0.0 1.0 0.00 0.00 0.00 51 1006.7
20260504045557 62 48 0.0 1.0 0.00 0.00 0.00 47 1006.8
20260504045056 62 48 0.0 1.0 0.00 0.00 0.00 48 1006.8
20260504044556 62 47 0.0 1.0 0.00 0.00 0.00 49 1006.8
20260504044055 62 47 0.0 1.0 0.00 0.00 0.00 49 1006.8
20260504043555 62 47 0.0 1.0 0.00 0.00 0.00 47 1006.7
20260504043100 63 47 0.0 1.0 0.00 0.00 0.00 46 1006.7
20260504042555 63 47 0.0 1.0 0.00 0.00 0.00 45 1006.7
20260504042054 64 318 0.0 1.0 0.00 0.00 0.00 44 1006.6
20260504041555 65 317 0.0 1.0 0.00 0.00 0.00 44 1006.6
20260504041054 65 317 0.0 1.0 0.00 0.00 0.00 43 1006.6
20260504040555 65 317 0.0 1.0 0.00 0.00 0.00 43 1006.5
20260504040126 65 317 0.0 1.0 0.00 0.00 0.00 42 1006.5
20260504035554 66 301 0.0 1.0 0.00 0.00 0.00 44 1006.4
20260504035056 66 301 0.0 0.0 0.00 0.00 0.00 43 1006.4
20260504034600 67 288 0.0 0.0 0.00 0.00 0.00 42 1006.3
20260504034052 68 288 0.0 0.0 0.00 0.00 0.00 41 1006.3
20260504033552 69 288 0.0 0.0 0.00 0.00 0.00 39 1006.3
20260504033052 71 288 0.0 0.0 0.00 0.00 0.00 37 1006.3
20260504032552 71 288 0.0 1.0 0.00 0.00 0.00 34 1006.2
20260504032052 72 288 0.0 2.0 0.00 0.00 0.00 33 1006.2
20260504031601 73 288 0.0 3.0 0.00 0.00 0.00 32 1006.2
20260504031052 74 304 1.0 3.0 0.00 0.00 0.00 31 1006.1
20260504030551 74 295 1.0 2.0 0.00 0.00 0.00 30 1006.1
20260504030052 75 285 0.0 2.0 0.00 0.00 0.00 29 1006.1
20260504025554 75 283 1.0 2.0 0.00 0.00 0.00 28 1006.1
20260504025055 76 287 1.0 3.0 0.00 0.00 0.00 27 1006.1
20260504024551 76 305 1.0 5.0 0.00 0.00 0.00 27 1006.1
20260504024050 77 304 2.0 5.0 0.00 0.00 0.00 26 1006.1
20260504023550 77 293 1.0 4.0 0.00 0.00 0.00 25 1006.0
20260504023050 78 285 1.0 7.0 0.00 0.00 0.00 25 1006.1
20260504022550 78 307 1.0 7.0 0.00 0.00 0.00 24 1006.1
20260504022049 78 277 2.0 7.0 0.00 0.00 0.00 24 1006.1
20260504021550 79 285 3.0 8.0 0.00 0.00 0.00 23 1006.1
20260504021049 79 294 1.0 7.0 0.00 0.00 0.00 23 1006.1
20260504020549 79 291 2.0 9.0 0.00 0.00 0.00 22 1006.1
20260504020106 79 291 2.0 9.0 0.00 0.00 0.00 22 1006.2
20260504015552 79 299 1.0 8.0 0.00 0.00 0.00 22 1006.2
20260504015052 79 293 2.0 8.0 0.00 0.00 0.00 22 1006.2
20260504014547 80 298 1.0 5.0 0.00 0.00 0.00 22 1006.1
20260504014046 80 315 2.0 6.0 0.00 0.00 0.00 22 1006.2
20260504013546 80 280 3.0 8.0 0.00 0.00 0.00 21 1006.3
20260504013047 80 290 2.0 8.0 0.00 0.00 0.00 21 1006.3
20260504012546 80 305 2.0 8.0 0.00 0.00 0.00 21 1006.3
20260504012046 80 309 3.0 7.0 0.00 0.00 0.00 21 1006.3
20260504011546 80 304 3.0 10.0 0.00 0.00 0.00 20 1006.4
20260504011044 81 307 4.0 10.0 0.00 0.00 0.00 21 1006.5
20260504010544 81 291 2.0 9.0 0.00 0.00 0.00 20 1006.5
20260504010048 81 296 3.0 12.0 0.00 0.00 0.00 20 1006.6
20260504005542 81 305 4.0 12.0 0.00 0.00 0.00 20 1006.7
20260504005044 81 328 2.0 10.0 0.00 0.00 0.00 20 1006.7
20260504004540 81 300 3.0 8.0 0.00 0.00 0.00 21 1006.8
20260504004040 81 307 4.0 10.0 0.00 0.00 0.00 21 1006.9
20260504003541 82 294 4.0 9.0 0.00 0.00 0.00 20 1007.0
20260504003038 82 300 3.0 9.0 0.00 0.00 0.00 21 1007.1
20260504002539 82 291 3.0 9.0 0.00 0.00 0.00 20 1007.2
20260504002037 82 288 3.0 12.0 0.00 0.00 0.00 21 1007.1